Temperature
14 14 13 13 13 13 14 14 14 14 14 14 14 14 14 14 14 14 14 14 14 14 14 14 14 14 14 14 14 14 14 14 14 14 14 14 14 14 14 14 14 14 14
14 14 13 13 13 13 13 14 14 14 14 14 14 14 14 14 14 14 14 14 14 14 14 14 14 14 14 14 14 14 14 14 14 14 14 14 14 14 14 14 14 14 14
14 14 13 13 13 13 13 13 13 13 13 14 14 14 14 14 14 14 14 14 14 14 14 14 14 14 14 14 14 14 14 14 14 14 14 14 14 14 14 14 14 14 14
13 13 13 13 13 13 13 13 13 13 13 13 14 14 14 14 14 14 14 14 14 14 14 14 14 14 14 14 14 14 14 14 14 14 14 14 13 13 13 14 14 14 14
13 13 13 13 13 13 13 13 13 13 13 13 13 13 13 13 13 13 13 13 13 13 13 13 13 14 13 14 14 14 14 14 14 14 14 13 13 13 13 13 13 13 13
13 13 13 13 13 13 13 13 13 13 13 13 13 13 13 13 13 13 13 13 13 13 13 13 13 13 13 13 13 13 13 13 13 13 13 13 13 13 13 13 13 13 13
12 12 12 12 12 12 12 12 13 13 13 13 13 13 13 13 13 13 13 13 13 13 13 13 13 13 13 13 13 13 13 13 13 13 13 13 13 13 13 13 13 13 13
12 12 12 12 12 12 12 12 12 12 12 13 13 13 13 13 13 13 13 13 13 13 13 13 13 13 13 13 13 13 13 13 13 13 13 12 12 12 12 12 12 12 12
11 12 12 12 12 12 12 12 12 12 12 12 12 12 12 13 13 13 12 12 12 13 13 13 13 12 12 12 12 12 12 12 12 12 12 12 12 12 12 12 12 12 12
11 11 11 11 11 11 12 12 12 12 12 12 12 12 12 12 12 12 12 12 12 12 12 12 12 12 12 12 12 12 12 12 12 12 12 11 11 11 11 11 11 11 12
10 11 11 11 11 11 11 11 11 11 11 11 12 12 12 12 12 12 12 12 12 12 12 12 12 12 12 12 11 11 11 11 11 11 11 11 11 11 11 11 11 11 11
10 10 10 10 11 11 11 11 11 11 11 11 11 11 11 11 11 11 11 11 11 11 11 11 11 11 11 11 11 11 11 11 11 11 11 11 11 11 11 11 11 11 11
10 10 10 10 10 10 11 11 11 10 10 11 11 11 11 11 11 11 11 11 11 11 11 11 11 11 11 11 11 11 11 11 11 11 10 10 10 10 10 10 10 10 10
10 10 10 10 10 10 10 10 10 10 10 10 10 10 10 11 11 11 11 11 11 11 10 10 11 10 10 10 10 10 10 10 10 10 10 10 10 10 10 10 9 10 10
9 9 9 9 9 9 9 10 10 10 10 10 10 10 10 10 10 10 10 10 10 10 10 10 10 10 10 10 10 10 10 10 10 10 10 10 9 9 9 9 9 9 9
9 9 9 9 9 9 9 9 9 9 9 9 9 9 9 9 10 10 10 10 9 9 9 9 9 9 10 10 10 9 9 9 9 9 9 9 9 9 9 9 9 9 9
8 8 8 8 8 8 8 8 8 8 8 8 8 9 9 9 9 9 9 9 9 9 9 9 9 9 9 9 9 9 9 9 9 9 9 9 9 9 9 9 9 9 9
8 8 8 8 8 8 8 8 8 8 8 8 8 8 8 8 8 9 9 9 9 8 8 8 8 9 9 9 9 9 8 8 8 8 8 9 9 9 9 9 9 9 8
7 7 7 7 7 7 7 7 7 7 7 7 7 7 7 8 8 8 8 8 8 8 8 8 8 8 8 8 8 8 8 8 8 8 8 8 8 8 8 8 8 8 8
6 7 7 7 7 7 6 6 6 6 6 6 7 7 7 7 7 7 7 8 8 8 8 8 8 8 8 8 8 7 7 7 7 7 7 7 7 7 8 8 8 8 8
6 6 6 6 6 6 6 6 6 6 6 6 6 6 6 6 6 7 7 7 7 7 7 7 7 7 7 7 7 7 7 7 6 6 6 7 7 7 7 7 7 7 7
5 5 5 5 5 5 5 5 6 6 5 5 5 5 6 5 6 6 6 6 6 6 6 7 7 7 7 6 6 6 6 6 6 6 6 6 6 6 6 6 7 7 7
4 5 5 5 5 5 5 5 5 5 4 4 5 5 5 5 5 5 5 5 5 6 6 6 6 6 6 6 6 6 5 5 5 5 5 6 6 6 6 6 6 6 6
4 4 4 4 4 4 4 4 4 4 4 4 4 4 4 4 4 4 5 5 5 5 5 5 5 5 6 6 5 5 5 5 5 5 5 5 5 5 5 5 5 5 6
3 4 4 4 4 4 4 4 4 4 4 4 4 4 4 4 4 4 4 4 4 4 4 4 4 4 5 5 5 5 5 5 4 4 4 5 5 5 5 5 5 5 5
3 3 3 3 3 3 3 4 4 4 4 3 4 4 4 4 4 4 4 4 4 4 4 4 4 4 4 4 4 4 4 4 4 3 3 4 4 4 4 4 4 4 4
Wind_Speed
2 3 5 7 9 10 10 11 11 12 12 13 13 14 14 14 14 14 14 15 15 15 16 16 16 17 17 18 18 18 18 18 18 18 17 17 17 17 17 17 16 15 17
3 5 6 9 10 11 11 11 11 12 12 12 13 13 13 13 13 14 14 15 15 15 15 16 16 17 17 18 18 18 18 17 18 18 17 16 16 17 16 16 16 15 17
3 5 6 9 10 11 11 12 12 12 12 12 13 13 13 13 13 13 14 14 14 15 15 15 16 16 17 17 17 17 17 17 17 17 16 14 15 16 16 16 16 16 16
4 5 6 9 11 12 12 12 12 12 12 12 12 12 12 13 13 13 14 14 14 14 15 15 15 16 16 16 17 16 16 16 16 15 14 13 13 15 15 15 15 16 16
4 5 7 10 11 12 12 12 12 11 11 11 12 12 12 12 13 13 13 14 14 14 14 14 15 15 15 15 16 16 16 16 16 15 14 13 13 14 15 15 15 15 15
4 6 7 10 11 12 12 12 12 11 11 11 12 12 12 12 13 13 13 14 14 14 13 14 14 15 15 15 15 15 15 15 15 14 13 13 12 14 15 15 15 15 15
4 6 7 10 11 12 12 12 11 11 11 11 11 12 12 12 13 13 13 13 13 13 13 13 13 14 14 14 15 15 15 14 14 13 12 12 12 14 15 15 15 15 15
5 6 7 9 10 11 11 11 11 11 11 11 11 11 12 12 12 12 12 13 13 13 13 13 13 13 14 14 14 15 15 14 12 11 11 11 12 13 14 15 15 15 15
6 6 6 7 8 9 10 11 11 10 10 11 11 11 11 12 12 12 12 12 12 12 12 13 13 13 13 14 14 14 14 14 13 10 10 10 12 13 13 14 14 15 14
6 6 6 7 7 8 9 10 10 10 10 11 11 11 11 11 11 12 11 12 12 12 12 13 13 13 13 13 14 14 14 13 12 11 10 10 11 12 13 13 13 14 13
4 5 6 6 7 8 8 9 10 10 10 11 10 11 10 10 11 10 11 11 11 11 12 12 13 13 13 13 13 13 12 11 11 10 9 10 11 11 12 12 12 13 13
2 3 5 6 6 7 7 9 10 9 10 10 10 10 10 10 10 10 11 12 11 11 11 12 12 12 12 11 12 12 10 11 10 9 9 10 10 11 11 11 11 11 12
3 3 3 5 6 7 7 7 8 8 9 9 9 9 9 9 9 9 9 10 10 10 10 10 10 10 10 10 10 10 10 10 9 9 8 9 10 10 10 10 11 11 11
3 3 3 4 5 6 7 7 7 7 6 7 7 7 8 7 7 7 7 8 8 8 8 8 8 9 10 10 10 10 10 9 9 9 8 9 9 9 9 10 10 10 10
3 3 3 4 5 5 6 6 6 6 6 6 7 7 7 6 5 6 6 7 7 7 7 7 7 8 9 9 9 9 9 9 10 9 9 10 9 9 9 9 9 9 9
4 3 3 3 4 6 6 5 6 6 6 7 7 7 7 6 6 6 6 6 6 6 7 6 6 6 7 8 8 8 8 9 9 9 9 9 9 9 8 8 8 7 7
5 4 4 3 4 5 6 6 6 6 7 6 6 7 7 7 7 7 6 5 5 6 7 7 7 7 6 7 6 7 8 8 9 9 9 9 9 9 9 8 7 7 7
4 5 5 4 4 4 5 7 6 7 7 6 6 6 7 7 7 7 6 5 6 6 7 5 5 4 4 4 4 5 6 7 8 9 9 9 9 9 9 9 8 7 6
5 5 5 5 5 4 6 7 7 7 7 6 6 6 6 7 7 7 6 6 7 6 6 5 4 3 4 4 4 4 5 5 6 7 8 9 9 10 9 9 10 9 8
5 5 5 5 5 5 5 6 6 6 5 6 6 5 6 6 7 7 6 7 7 5 4 4 4 4 3 3 4 4 4 4 5 6 6 7 9 10 10 9 9 8 9
4 5 6 5 5 5 4 4 4 3 3 3 4 5 6 6 6 7 6 6 6 4 4 4 4 5 4 3 3 3 3 3 4 4 5 6 7 8 8 8 7 7 7
5 6 6 6 6 6 4 4 3 4 3 3 4 5 6 5 6 6 6 5 5 4 5 4 4 3 2 3 2 2 1 2 3 3 3 4 5 6 7 7 7 6 6
5 6 6 6 6 5 5 5 5 4 3 3 2 2 3 5 5 5 6 6 5 5 4 3 4 4 3 2 3 2 2 1 1 2 2 3 3 3 5 6 6 6 5
5 5 6 6 6 5 6 7 7 5 4 3 2 2 3 4 5 5 5 6 5 4 4 3 4 3 4 3 2 3 2 2 1 1 2 2 2 2 3 4 5 5 5
4 5 5 5 5 5 6 7 7 5 4 3 3 4 3 3 3 4 5 5 5 4 4 4 3 3 3 3 2 1 2 2 2 1 1 3 3 2 2 3 3 3 5
3 4 4 6 5 5 6 6 6 6 6 5 4 4 3 2 2 3 3 4 4 4 3 3 3 3 2 3 2 2 2 1 1 1 1 2 3 3 3 2 1 2 4
Wind_Direction
212 219 181 149 132 125 120 115 109 104 101 100 101 100 100 99 96 93 91 90 88 87 86 84 83 82 82 80 78 76 74 72 70 71 69 69 72 73 72 71 71 72 76
169 171 159 144 133 128 124 121 113 107 104 103 102 100 100 100 98 94 91 90 89 89 87 85 83 82 81 79 78 76 74 73 71 68 67 67 70 73 74 73 74 76 76
132 153 146 138 131 128 125 121 115 110 107 105 103 102 100 99 100 98 95 91 89 88 86 86 83 82 82 81 79 77 75 74 71 67 63 62 67 72 75 75 76 77 76
123 136 133 134 133 129 125 122 118 113 110 107 105 104 102 100 100 99 97 93 90 88 87 87 86 84 84 83 81 78 77 74 70 65 60 59 65 72 73 74 75 76 75
105 119 131 133 133 130 125 120 116 114 111 109 107 105 103 100 98 97 96 95 93 90 88 88 87 86 84 83 82 80 78 74 69 65 60 59 64 72 73 74 75 77 76
89 108 132 133 132 129 124 119 116 114 113 111 109 106 103 100 98 98 96 95 95 93 91 89 88 87 85 83 83 81 80 76 70 65 61 61 65 72 74 74 75 76 76
78 95 127 132 131 129 126 120 117 114 113 112 110 108 104 100 98 97 97 96 96 95 93 91 90 90 86 84 82 82 80 77 72 65 62 63 69 74 74 74 74 76 76
81 83 106 130 129 128 127 125 119 114 110 109 109 109 107 103 99 98 98 97 95 94 92 93 94 93 89 87 84 82 79 77 73 65 63 66 72 75 75 74 73 74 73
70 73 79 101 117 123 124 124 121 115 110 107 103 102 104 102 100 98 97 96 95 95 95 95 95 93 91 88 87 84 80 77 72 66 65 68 73 75 75 75 74 73 72
58 58 70 83 96 102 108 114 116 112 107 102 98 95 97 98 99 98 95 95 94 96 98 97 96 93 90 88 86 85 80 74 68 67 67 71 73 76 75 74 74 73 73
63 46 57 73 85 93 97 102 99 99 97 94 91 89 90 90 91 92 93 93 93 96 98 98 95 92 88 85 83 82 77 71 69 66 68 72 73 76 75 74 73 73 73
113 60 52 66 83 93 94 92 88 86 86 87 88 87 85 86 91 92 92 91 90 90 92 94 93 88 82 78 77 75 71 69 67 64 69 73 73 75 75 74 74 73 72
140 96 63 69 79 90 91 90 87 88 86 84 84 87 90 85 83 84 83 80 79 78 77 83 83 79 78 77 74 72 70 67 63 62 67 73 73 73 74 75 74 73 71
128 114 79 78 83 91 97 92 91 87 84 80 80 84 90 84 78 77 79 78 77 78 75 75 79 79 76 76 77 73 68 65 62 60 65 72 71 72 74 77 75 72 72
144 131 111 85 92 101 100 95 91 89 86 84 81 80 89 90 87 81 78 79 76 78 77 75 79 82 78 73 73 72 68 66 64 62 59 64 67 68 72 76 75 70 69
171 156 133 106 106 108 107 102 99 95 93 87 81 79 85 90 91 87 78 75 74 77 79 83 85 87 83 78 70 67 67 68 66 63 59 59 61 65 68 71 73 70 67
173 156 150 130 107 109 115 110 103 101 98 87 84 85 85 88 90 87 80 73 70 80 83 83 82 81 80 75 66 62 65 66 66 62 60 58 55 55 61 64 66 67 64
164 158 158 139 120 119 123 114 107 101 98 90 91 88 85 87 90 87 80 72 76 81 81 83 84 89 80 76 68 56 58 61 63 64 62 59 58 53 52 54 54 57 55
171 161 155 144 139 133 125 114 106 101 96 93 92 87 84 88 92 88 80 74 78 77 72 83 82 89 92 81 74 58 53 54 53 63 61 58 58 55 52 48 47 48 46
169 160 151 147 141 130 118 107 101 90 84 85 87 90 94 91 94 92 82 77 78 78 75 84 91 76 84 82 81 63 49 52 56 57 59 59 55 50 46 45 44 40 38
164 159 158 150 148 139 139 141 137 131 110 89 84 88 92 92 97 94 88 84 79 84 83 92 103 89 68 60 78 63 40 48 55 48 49 56 51 44 41 40 42 40 32
176 171 164 161 156 154 152 147 133 127 115 98 85 80 85 92 98 97 96 96 89 91 81 77 93 97 75 50 81 103 61 17 21 23 34 47 43 42 39 32 36 37 33
181 180 173 171 161 154 134 117 108 96 89 95 93 87 79 95 100 97 98 100 97 100 108 94 89 95 116 64 55 96 126 193 309 343 27 32 26 32 32 26 24 24 27
194 180 169 163 160 157 142 143 141 142 142 157 149 132 97 95 102 105 103 100 103 102 111 112 84 86 114 113 71 46 76 122 132 316 327 1 12 19 10 8 9 15 19
181 170 163 153 159 157 152 156 152 144 139 129 124 121 114 91 96 102 112 111 107 102 110 110 93 88 100 115 114 92 73 60 77 136 280 315 334 336 336 340 353 6 11
152 152 154 154 159 160 157 156 155 151 141 134 135 139 144 125 95 85 100 111 114 107 117 124 115 113 109 103 106 102 111 126 137 130 221 292 301 299 311 300 311 333 350
Height
1518 1520 1523 1525 1527 1528 1529 1531 1532 1533 1534 1535 1536 1537 1537 1538 1539 1539 1539 1540 1541 1541 1542 1542 1542 1543 1543 1543 1544 1544 1544 1545 1545 1545 1545 1546 1546 1547 1547 1547 1547 1548 1548
1517 1520 1522 1525 1526 1528 1529 1531 1532 1533 1534 1535 1536 1537 1538 1539 1539 1540 1540 1541 1542 1542 1543 1543 1544 1544 1544 1545 1545 1545 1546 1546 1546 1547 1547 1548 1548 1548 1549 1549 1550 1550 1550
1516 1519 1522 1524 1526 1528 1529 1531 1532 1534 1535 1536 1537 1538 1539 1539 1540 1541 1541 1542 1542 1543 1543 1544 1544 1545 1545 1546 1546 1547 1547 1548 1548 1549 1549 1549 1550 1550 1550 1551 1551 1552 1552
1516 1519 1521 1524 1526 1528 1529 1531 1532 1534 1535 1536 1537 1538 1539 1540 1541 1541 1542 1542 1543 1544 1544 1545 1545 1546 1547 1547 1548 1548 1549 1549 1550 1550 1551 1551 1551 1552 1552 1553 1553 1553 1554
1516 1519 1521 1524 1526 1528 1529 1531 1532 1534 1535 1536 1537 1538 1539 1540 1541 1542 1543 1543 1544 1545 1545 1546 1546 1547 1548 1548 1549 1549 1550 1550 1551 1552 1552 1552 1553 1553 1554 1554 1555 1555 1555
1516 1519 1521 1524 1525 1527 1529 1531 1532 1534 1535 1536 1537 1539 1540 1540 1541 1542 1543 1544 1545 1545 1546 1546 1547 1548 1549 1549 1550 1550 1551 1552 1552 1553 1553 1554 1554 1555 1555 1555 1556 1556 1557
1516 1518 1521 1523 1525 1527 1529 1531 1532 1534 1535 1536 1537 1539 1539 1541 1542 1543 1543 1544 1545 1546 1547 1547 1548 1549 1549 1550 1551 1551 1552 1553 1553 1554 1554 1555 1555 1556 1556 1557 1557 1557 1558
1516 1518 1520 1523 1525 1527 1528 1530 1532 1533 1535 1536 1537 1538 1540 1541 1542 1543 1544 1545 1546 1547 1547 1548 1548 1549 1550 1551 1552 1552 1553 1554 1554 1555 1555 1556 1556 1557 1557 1558 1558 1558 1559
1515 1517 1520 1522 1524 1526 1528 1529 1531 1533 1534 1536 1537 1538 1539 1541 1542 1543 1544 1545 1546 1547 1548 1548 1549 1550 1551 1551 1552 1553 1554 1554 1555 1556 1556 1557 1557 1558 1558 1559 1559 1559 1560
1514 1516 1519 1521 1523 1525 1527 1529 1530 1532 1534 1535 1537 1538 1539 1540 1542 1543 1544 1545 1546 1547 1548 1549 1549 1550 1551 1552 1552 1553 1554 1555 1556 1556 1557 1558 1558 1559 1559 1559 1560 1560 1560
1513 1515 1517 1520 1522 1524 1526 1528 1529 1532 1533 1535 1536 1537 1539 1540 1541 1542 1544 1545 1546 1547 1548 1549 1549 1550 1551 1552 1553 1554 1555 1555 1556 1557 1557 1558 1559 1559 1560 1560 1560 1561 1561
1510 1513 1515 1518 1520 1522 1524 1526 1528 1530 1532 1534 1535 1537 1538 1539 1541 1542 1543 1545 1546 1547 1548 1549 1549 1550 1551 1552 1553 1554 1554 1555 1556 1557 1557 1558 1559 1559 1560 1560 1561 1561 1561
1509 1511 1513 1516 1518 1520 1522 1525 1527 1529 1531 1533 1534 1536 1538 1539 1540 1542 1543 1544 1545 1546 1547 1548 1549 1550 1551 1552 1552 1554 1555 1555 1556 1556 1557 1558 1559 1559 1560 1560 1561 1561 1562
1507 1509 1511 1514 1516 1518 1521 1523 1525 1527 1529 1531 1533 1535 1537 1538 1539 1541 1542 1543 1544 1546 1547 1548 1549 1550 1551 1552 1552 1553 1554 1555 1556 1556 1557 1558 1558 1559 1559 1560 1561 1561 1562
1505 1507 1509 1511 1514 1516 1518 1520 1523 1525 1528 1530 1532 1534 1535 1537 1538 1540 1541 1542 1543 1545 1546 1547 1549 1550 1551 1552 1552 1553 1554 1555 1555 1556 1557 1557 1558 1558 1559 1560 1560 1561 1561
1503 1505 1508 1509 1511 1514 1516 1518 1520 1523 1525 1528 1530 1532 1534 1536 1537 1538 1540 1541 1543 1544 1545 1547 1548 1549 1550 1551 1552 1553 1554 1554 1555 1556 1556 1557 1558 1558 1559 1559 1560 1560 1561
1500 1503 1505 1507 1509 1511 1514 1516 1519 1521 1523 1526 1528 1530 1532 1534 1536 1537 1539 1540 1541 1543 1544 1546 1547 1548 1549 1550 1551 1552 1553 1554 1555 1556 1556 1557 1557 1558 1558 1559 1559 1559 1560
1498 1500 1502 1505 1507 1509 1512 1514 1517 1519 1521 1524 1526 1528 1530 1532 1534 1535 1537 1538 1540 1541 1543 1544 1546 1547 1548 1549 1550 1552 1552 1553 1554 1555 1556 1556 1557 1557 1558 1558 1559 1559 1559
1495 1497 1499 1502 1504 1507 1509 1512 1514 1517 1519 1521 1523 1526 1528 1530 1531 1533 1535 1537 1538 1540 1542 1543 1545 1546 1547 1548 1549 1550 1551 1552 1553 1554 1555 1555 1556 1557 1557 1557 1558 1558 1558
1491 1494 1497 1499 1502 1504 1506 1509 1512 1514 1517 1519 1521 1523 1525 1527 1529 1531 1533 1535 1536 1538 1540 1541 1543 1544 1546 1547 1548 1549 1550 1551 1552 1553 1553 1554 1555 1555 1556 1556 1556 1556 1557
1488 1490 1493 1495 1497 1500 1503 1505 1508 1511 1514 1517 1519 1521 1523 1525 1527 1529 1531 1532 1534 1536 1537 1539 1541 1542 1544 1545 1546 1547 1549 1550 1551 1551 1552 1552 1553 1553 1554 1554 1554 1555 1555
1484 1487 1489 1491 1494 1497 1500 1503 1505 1508 1511 1515 1517 1519 1521 1524 1525 1527 1528 1530 1532 1534 1536 1537 1538 1540 1541 1543 1544 1545 1547 1549 1549 1549 1550 1550 1551 1551 1552 1552 1552 1552 1553
1481 1483 1485 1489 1491 1494 1497 1500 1503 1506 1509 1512 1514 1517 1519 1521 1523 1525 1526 1528 1530 1532 1533 1534 1536 1537 1538 1541 1543 1544 1545 1545 1546 1547 1547 1548 1549 1549 1549 1550 1550 1550 1550
1479 1482 1484 1486 1489 1493 1495 1498 1500 1502 1505 1508 1512 1515 1517 1519 1521 1523 1524 1526 1528 1530 1531 1532 1534 1535 1537 1538 1540 1541 1543 1543 1544 1544 1545 1546 1546 1547 1547 1547 1547 1548 1548
1477 1479 1481 1484 1487 1490 1493 1495 1498 1501 1504 1507 1510 1512 1515 1517 1519 1521 1523 1524 1526 1528 1529 1531 1532 1533 1535 1536 1537 1538 1540 1541 1541 1542 1541 1542 1543 1544 1544 1544 1544 1545 1545
1474 1476 1479 1482 1484 1487 1490 1493 1495 1498 1501 1504 1506 1509 1512 1514 1516 1518 1520 1522 1523 1525 1527 1528 1529 1531 1532 1534 1535 1536 1537 1538 1538 1539 1539 1539 1539 1540 1541 1541 1541 1542 1542